Back to catalog

STARLINK-31438

AliveCommunicationsVLEO
NORAD 59234·PAYLOAD·🇺🇸 United States

Launched Mar 16, 2024 from Cape Canaveral Space Force Station

Loading…

Next Passes (next 24 hours)

TLE

FreshSource: CelesTrak SupGP

Epoch: Sep 14, 2026, 22:45 UTC

1 59234C 24049D   26257.94840278 -.00043706  00000+0 -15832-2 0  2575
2 59234  42.9998 143.6986 0001423 269.8863 245.7069 15.27596463    17

Track STARLINK-31438 in real time with AllMySat

Download on the App Store